{"data":{"norad_id":63196,"epoch":"2026-09-21T21:30:46.828512Z","epoch_age_seconds":41549,"freshness":"FRESH","line1":"1 63196U 25048P   26264.89637533  .00011828  00000+0  43855-3 0  9995","line2":"2 63196  43.0021  61.2575 0001042 264.0451  96.0282 15.27586602 87051","mean_motion":15.27586602,"eccentricity":0.0001042,"inclination_deg":43.0021,"raan_deg":61.2575,"arg_perigee_deg":264.0451,"mean_anomaly_deg":96.0282,"bstar":0.00043855,"rev_number":8705,"period_min":94.266341306913,"perigee_km":482.31439381648,"apogee_km":483.7442608791,"semimajor_km":6861.1663273478,"source":"CELESTRAK","updated_at":"2026-09-22T09:00:49.797134Z"}}